IMAP

导读

IMAP(星际测绘和加速探测器)是美国航空航天局(NASA)主导研发的日球层物理探测卫星,于2025年9月24日成功发射。该卫星运行于日地系统L1拉格朗日点,搭载10台科学仪器,计划任务时长3年,核心目标是探究日球层内带电粒子加速机制,以及太阳风与局地星际介质的相互作用,同时可为空间天气预测提供关键实时观测数据。

Basic Information
目录编号:
65725
目录名称:
IMAP
国际标识:
2025-215A
轨道中心:
EARTH
卫星名称:
IMAP
卫星全名:
IMAP
卫星状态:
已陨落 最后检测时间 2025-09-26
发射日期:
2025-09-24 UTC
国别 :
美国 (US)
星等 :
--
Orbit Information
数据来源 国际轨道数据
星历时间: 2025-09-24T20:44:07+0800
轨道信息已过期346天
半长轴: 617213.091km
偏心率: 0.98937
轨道倾角: 28.380°
近地点辐角 3.550°
升交点赤经 11.900°
平近点角 0.002°
近地点: 182.84km
远地点: 1221487.072km
周期: 80428.954分钟
每日圈数: 0.017904
Detailed Information
使用方式:
暂无